SCP
0 0 0 0 0 0 0 0 0 0 0 0 0 0 0 0 0 0 0 0 0 0 0 0 0 0 0 0 0 0 0 0 0 0 0 0 0 0 0 0 0 0 0
0 0 0 0 0 0 0 0 0 0 0 0 0 0 0 0 0 0 0 0 0 0 0 0 0 0 0 0 0 0 0 0 0 0 0 0 0 0 0 0 0 0 0
0 0 0 0 0 0 0 0 0 0 0 0 0 0 0 0 0 0 0 0 0 0 0 0 0 0 0 0 0 0 0 0 0 0 0 0 0 0 0 0 0 0 0
0 0 0 0 0 0 0 0 0 0 0 0 0 0 0 0 0 0 0 0 0 0 0 0 0 0 0 0 0 0 0 0 0 0 0 0 0 0 0 0 0 0 0
0 0 0 0 0 0 0 0 0 0 0 0 0 0 0 0 0 0 0 0 0 0 0 0 0 0 0 0 0 0 0 0 0 0 0 0 0 0 0 0 0 -0 -0
0 0 0 0 0 0 0 0 0 0 0 0 0 0 0 0 0 0 0 0 0 0 0 0 0 0 0 0 0 0 0 0 0 0 0 0 0 0 0 0 0 0 0
0 0 0 0 0 0 0 0 0 0 0 0 0 0 0 0 0 0 0 0 0 0 0 0 0 0 0 0 0 0 0 0 0 0 0 0 0 0 0 0 0 0 0
0 0 0 0 0 0 0 0 0 0 0 0 0 0 0 0 0 0 0 0 0 0 0 0 0 0 0 0 0 0 0 0 0 0 0 0 0 0 0 0 0 0 0
0 -0 -0 0 0 0 0 0 0 0 0 0 0 0 0 0 0 0 0 0 0 0 0 0 0 0 0 0 0 0 0 0 0 0 0 0 0 0 0 0 0 0 0
0 -0 -0 -0 0 0 0 0 0 0 0 0 0 0 0 0 0 0 0 0 0 0 0 0 0 0 0 0 0 0 0 0 0 0 0 0 0 0 0 0 0 0 0
0 -0 -0 -0 0 0 0 0 0 0 0 0 0 0 0 0 0 0 0 0 0 0 0 0 0 0 0 0 0 0 0 0 0 0 0 0 0 0 0 0 0 0 0
-0 0 -0 -0 -0 0 0 0 0 0 0 0 0 0 0 0 0 0 0 0 0 0 0 0 0 0 0 0 0 0 0 0 0 0 0 0 0 0 0 0 0 0 0
-0 0 0 0 -0 -0 0 0 0 0 0 0 0 0 0 0 0 0 0 0 0 0 0 0 0 0 0 0 0 0 0 0 0 0 0 0 0 0 0 0 0 0 0
0 -0 -0 -0 -0 -0 -0 0 0 0 0 0 0 0 0 0 0 0 0 0 0 0 0 0 0 0 0 0 0 0 0 0 0 0 0 0 0 0 0 0 0 0 0
0 0 -0 -0 -0 -0 -0 0 0 0 0 0 0 0 0 0 0 0 0 0 0 0 0 0 0 0 0 0 0 0 0 0 0 0 0 0 0 0 0 0 0 0 0
0 0 -0 -0 -0 -0 0 0 0 0 0 0 0 0 0 0 0 0 0 0 0 0 0 0 0 0 0 0 0 0 0 0 0 0 0 0 0 0 0 0 0 0 0
0 -0 -0 -0 0 0 0 0 0 0 0 0 0 0 0 0 0 0 0 0 0 0 0 0 0 0 0 0 0 0 0 0 0 0 0 0 0 0 0 0 0 0 0
0 -0 0 0 0 0 0 0 0 0 0 0 0 0 0 0 0 -0 0 0 0 0 0 0 0 0 0 0 0 0 0 0 0 0 0 0 0 0 0 0 0 0 0
0 0 0 0 0 0 0 0 0 0 0 0 0 0 0 0 0 -0 -0 0 0 0 0 0 0 0 0 0 0 0 0 0 0 0 0 0 0 0 0 0 0 0 0
0 0 0 0 0 0 0 0 0 0 0 0 0 0 0 0 0 -0 -0 -0 0 0 0 0 0 0 0 0 0 0 0 0 0 0 0 0 0 0 0 0 0 0 0
0 0 0 0 0 0 0 0 0 0 0 0 0 0 0 0 0 0 0 0 0 0 0 0 0 0 0 0 0 0 0 0 0 0 0 0 0 0 0 0 0 0 0
0 0 0 0 0 0 0 0 0 0 0 0 0 0 0 0 0 0 0 0 0 0 0 0 0 0 0 0 0 0 0 0 0 0 0 0 0 0 0 0 0 0 0
0 0 0 0 0 0 0 0 0 0 0 0 0 0 0 0 0 0 0 0 0 0 0 0 0 0 0 0 0 0 0 0 0 0 0 0 0 0 0 0 0 0 0
0 0 0 0 0 0 0 0 0 0 0 0 0 0 0 0 0 0 0 0 0 0 0 0 0 0 0 0 0 0 0 0 0 0 0 0 0 0 0 0 0 0 0
0 0 0 0 0 0 0 0 0 0 0 0 0 0 0 0 0 0 0 0 0 0 0 0 0 0 0 0 0 0 0 0 0 0 0 0 0 0 0 0 0 0 0
0 0 0 0 0 0 0 0 0 0 0 0 0 0 0 0 0 0 0 0 0 0 0 0 0 0 0 0 0 0 0 0 0 0 0 0 0 0 0 0 0 0 0
Wind_Speed
6 7 8 8 8 8 9 12 13 12 14 16 17 16 16 16 15 14 13 13 13 11 9 10 10 8 7 5 5 5 4 4 5 3 2 2 4 5 7 7 7 7 7
8 8 9 9 8 10 13 12 12 13 15 15 16 17 17 17 17 18 17 16 16 15 14 13 12 10 10 8 7 7 6 6 6 5 3 2 4 4 7 8 8 7 7
9 9 10 10 11 14 15 12 12 13 14 15 17 19 19 18 18 18 17 17 17 16 16 16 15 14 13 9 9 8 7 7 6 5 4 4 5 6 7 7 7 6 7
13 10 11 12 14 16 14 12 13 14 15 16 18 18 18 17 18 17 17 17 16 15 14 15 15 16 15 13 10 10 8 7 6 6 5 5 5 6 5 4 5 3 6
15 14 13 12 12 13 13 13 13 15 16 15 15 15 16 16 17 19 18 17 17 17 15 14 14 16 18 15 11 11 11 8 6 5 5 4 4 2 3 4 7 6 6
16 15 14 12 11 11 12 12 13 14 14 14 17 17 18 16 25 31 22 17 17 18 17 15 14 15 20 22 20 19 16 11 9 6 5 4 3 3 3 6 8 9 6
15 15 15 13 12 11 10 11 13 14 14 16 17 17 19 21 30 32 31 18 17 17 18 17 14 14 16 15 18 22 19 19 17 10 7 5 3 3 5 7 7 9 10
13 14 14 14 13 11 9 10 11 10 13 15 16 17 16 19 30 32 32 18 15 15 17 18 17 18 17 17 14 12 10 9 9 5 3 3 4 5 6 7 8 8 10
14 14 15 15 15 12 10 10 9 9 11 12 12 14 16 17 29 31 30 13 12 15 15 16 16 17 24 25 15 12 11 8 11 12 10 9 9 10 9 3 3 4 7
16 17 16 15 15 14 12 9 7 8 9 9 10 12 13 12 24 31 31 12 13 12 12 14 17 19 25 27 15 13 12 10 8 6 5 4 4 5 10 5 3 3 4
16 17 17 15 15 14 11 7 6 6 7 8 8 7 9 10 20 31 32 13 14 13 12 12 13 24 25 26 19 12 13 10 7 6 4 2 2 3 4 4 5 5 6
16 17 18 17 14 11 11 8 6 7 8 8 7 6 6 8 14 24 33 25 20 13 12 12 14 26 25 24 17 16 18 11 6 5 3 2 2 2 3 5 7 8 10
16 18 18 18 15 11 11 10 7 8 8 8 8 9 8 8 13 25 30 31 27 13 9 16 20 27 24 18 19 18 10 7 5 4 3 2 2 3 5 5 7 9 12
17 18 17 17 17 13 10 10 9 10 10 10 11 11 10 10 11 12 13 19 23 16 12 15 22 24 17 11 8 9 6 6 5 5 4 2 1 2 4 5 6 6 8
18 18 16 15 16 14 11 11 12 12 12 12 11 11 12 13 16 22 17 14 14 14 15 10 9 11 9 8 6 6 5 6 5 4 3 2 1 3 5 5 5 6 8
18 17 13 12 13 13 12 11 20 20 21 25 21 16 13 16 20 27 31 28 29 30 21 14 13 12 11 10 9 7 6 6 5 5 4 3 2 3 5 5 6 7 9
18 18 14 13 13 13 12 11 10 12 22 25 26 25 21 20 23 27 30 30 30 31 15 13 12 12 10 10 9 8 6 6 5 4 3 2 2 3 5 6 7 8 10
18 18 16 14 13 13 13 12 10 9 8 10 17 25 25 23 23 26 29 26 21 20 11 11 11 10 10 9 9 8 7 6 5 4 3 2 2 3 5 7 7 9 11
17 14 13 13 13 14 14 12 9 9 9 7 6 11 19 22 23 25 28 17 14 13 11 10 9 10 9 9 8 7 7 6 5 4 3 3 3 3 5 7 8 12 12
15 19 18 14 13 13 13 11 8 8 8 8 8 8 9 11 10 14 16 12 11 12 10 9 9 9 9 8 8 7 6 5 5 4 3 3 3 4 6 8 9 10 10
13 15 18 16 14 13 11 9 7 7 7 7 7 9 15 9 9 9 8 9 10 11 10 9 8 9 8 7 7 7 6 5 4 4 3 3 4 4 6 8 10 11 11
13 12 12 12 11 10 8 6 6 6 6 6 4 8 18 7 6 7 8 9 9 8 8 8 7 6 6 7 7 7 6 5 4 4 4 4 4 5 7 8 10 10 10
11 10 9 7 4 3 4 4 4 4 4 4 4 3 5 7 9 9 9 9 9 9 7 7 7 6 5 4 4 5 5 5 5 5 5 4 5 6 7 9 11 11 11
8 7 6 5 4 3 3 3 3 4 5 7 8 9 9 9 10 11 10 9 9 8 7 6 6 8 8 5 3 3 3 4 4 5 7 6 6 7 8 9 9 10 11
8 8 7 7 6 6 6 6 7 8 9 9 9 9 9 9 10 9 9 8 9 8 8 6 4 5 6 5 5 4 7 9 8 6 6 7 8 10 10 10 9 9 10
10 9 8 8 8 8 8 8 9 10 9 9 9 8 8 8 9 8 8 8 7 7 6 4 4 3 3 3 5 8 10 11 11 12 9 7 9 8 8 8 10 9 10
Wind_Direction
269 251 244 235 222 212 208 205 198 189 185 185 186 186 186 186 183 182 181 176 179 177 176 176 173 161 164 161 159 162 167 163 205 255 294 321 329 319 318 313 304 303 303
274 257 247 240 222 218 221 213 202 196 192 189 186 188 190 190 188 187 183 180 181 182 181 177 174 168 168 169 170 176 180 181 186 209 251 263 261 273 281 284 290 292 293
298 268 253 239 229 227 226 218 208 203 198 193 190 192 193 192 191 191 186 184 186 186 183 182 177 173 176 175 176 178 179 182 184 195 223 233 248 251 260 261 260 263 270
328 302 274 252 238 234 228 216 209 205 204 202 199 197 194 192 192 190 188 187 185 184 182 182 179 181 180 174 176 178 175 176 178 196 218 230 236 240 249 267 294 264 287
334 326 304 279 256 242 231 220 211 208 207 203 203 201 195 192 193 191 190 188 184 181 181 183 183 183 180 176 175 176 176 174 173 190 213 222 232 258 302 310 314 312 289
330 327 321 306 281 257 242 227 216 211 206 200 203 201 201 202 201 197 190 189 187 183 180 180 180 180 184 183 186 184 182 173 174 182 206 223 258 298 317 321 321 326 321
323 323 326 320 304 282 258 235 223 214 205 206 206 204 206 208 204 201 197 188 190 189 181 176 175 178 179 179 186 187 192 193 186 183 203 222 262 294 306 306 304 303 297
317 320 324 321 311 296 272 247 233 218 212 211 209 208 209 210 207 203 198 190 191 190 185 180 176 173 181 178 183 187 186 196 203 206 203 215 235 254 265 285 301 301 293
319 321 323 320 311 300 278 254 235 222 220 217 211 208 210 210 209 203 194 183 188 188 185 181 178 173 181 179 175 177 181 192 211 215 220 234 256 282 294 305 305 305 296
321 320 317 313 304 294 279 259 235 223 224 217 218 212 209 204 207 203 192 177 182 181 181 182 184 176 180 179 172 174 180 187 189 199 216 249 274 283 289 279 250 254 272
316 314 311 305 298 291 281 259 231 217 213 212 216 208 205 198 209 206 194 178 182 178 179 179 184 181 182 184 177 180 188 181 175 162 155 180 235 254 264 257 246 237 250
311 309 308 305 298 289 275 256 231 212 208 207 204 200 197 192 209 215 201 184 185 182 182 178 181 181 181 186 183 185 192 168 134 136 145 182 221 244 258 266 267 263 258
308 306 305 304 295 280 266 253 230 215 213 209 204 205 199 196 210 219 210 190 189 179 179 178 177 179 179 185 188 184 163 139 138 145 163 186 208 255 278 279 279 276 272
302 300 299 298 294 280 259 245 232 219 215 211 208 208 201 197 199 209 208 191 184 174 171 175 175 176 164 146 161 162 141 146 151 153 159 176 237 278 279 281 283 292 287
296 293 292 288 286 281 261 243 236 229 221 215 214 206 201 203 202 199 195 186 171 164 158 157 163 161 150 147 144 146 148 150 151 149 151 162 234 272 278 284 282 286 282
291 290 287 286 286 282 272 260 247 240 237 232 225 216 215 210 203 205 204 190 175 168 161 165 169 169 167 165 164 161 161 158 150 147 153 169 221 267 282 285 284 280 282
279 282 282 280 279 279 271 260 256 250 243 238 232 225 216 209 204 205 206 194 180 173 169 171 171 171 168 164 163 159 154 149 142 146 153 166 219 267 282 284 284 284 283
277 277 275 274 272 271 267 257 245 237 238 236 231 229 221 210 205 203 202 193 185 178 173 171 169 166 161 158 156 150 143 141 142 146 151 163 209 254 271 275 277 278 284
278 276 272 270 267 265 264 254 235 225 230 233 217 224 221 209 203 203 198 194 180 167 165 164 162 158 155 150 145 140 140 142 142 144 160 190 211 231 255 266 273 278 282
276 272 271 267 264 261 257 246 224 214 219 224 218 211 201 188 192 197 196 183 164 154 155 155 152 149 146 143 141 140 141 144 150 161 181 200 215 233 256 266 271 277 283
277 272 267 264 258 254 247 233 213 206 214 219 216 208 196 185 188 187 175 151 141 139 142 143 142 142 140 138 138 142 145 151 160 171 189 208 221 239 253 264 270 274 285
279 275 270 264 256 244 228 209 196 200 207 207 192 206 198 172 153 134 119 112 107 110 122 130 131 134 140 144 145 147 153 165 176 182 198 214 230 245 254 262 267 278 292
292 290 289 283 263 199 172 164 172 181 178 164 140 114 117 107 104 101 98 96 97 100 107 116 121 122 121 126 138 151 166 182 183 181 194 216 234 246 254 263 271 283 292
320 326 340 358 27 57 80 95 107 110 100 90 87 88 90 93 94 96 98 99 101 101 101 105 114 130 137 139 152 174 199 209 197 198 202 216 237 253 260 265 273 282 290
349 359 10 20 32 45 57 65 70 74 76 80 84 85 88 91 94 97 99 101 104 103 104 105 110 127 149 166 184 204 225 234 227 210 207 220 238 249 259 269 277 282 289
6 12 18 25 33 41 51 59 62 68 73 76 80 84 89 93 98 100 101 102 102 104 107 110 125 142 170 200 223 231 233 236 232 224 216 229 244 254 263 273 275 280 288